Joplin, MO

10:17 PM CDT on October 18, 2019 (GMT -0500)
Joplin Regional

Weather History for KJLN - August, 2019

Change the Weather History Date:

Wednesday, August 28, 2019

  Actual Average Record
Temperature  
Mean Temperature 74 °F 78 °F  
Max Temperature 86 °F 89 °F 105 °F (1954)
Min Temperature 62 °F 66 °F 49 °F (1992)
Degree Days  
Heating Degree Days 0 0  
Month to date heating degree days 0 0  
Since 1 June heating degree days 1 5  
Since 1 July heating degree days 0 0  
Cooling Degree Days 9 13  
Month to date cooling degree days 379 421  
Year to date cooling degree days 1230 1392  
Since 1 June cooling degree days 1077 1212  
Growing Degree Days 24 (Base 50)    
Moisture  
Dew Point 62 °F    
Average Humidity 70    
Maximum Humidity 100    
Minimum Humidity 42    
Precipitation  
Precipitation 0.00 in 0.12 in 1.62 in (1977)
Month to date precipitation 5.39 2.97  
Year to date precipitation 48.30 30.59  
Sea Level Pressure  
Sea Level Pressure 30.08 in    
Wind  
Wind Speed 1 mph ()    
Max Wind Speed 9 mph    
Max Gust Speed 14 mph    
Visibility 9.7 miles    
Events      
T = Trace of Precipitation, MM = Missing Value Source: Averaged Metar Reports

Daily Weather History Graph

Daily Weather History Graph

Search for Another Location

Airport or City:

Astronomy

Aug. 28, 2019 Rise Set
Actual Time 6:45 AM CDT 7:52 PM CDT
Civil Twilight 6:18 AM CDT 8:19 PM CDT
Nautical Twilight 5:46 AM CDT 8:51 PM CDT
Astronomical Twilight 5:13 AM CDT 9:24 PM CDT
Moon 4:22 AM CDT (8/28) 7:01 PM CDT (8/28)
Length of Visible Light 14h 01m
Length of Day
13h 07m
Waning Crescent, 4% of the Moon is Illuminated
Aug 28
Waning Crescent
Aug 30
New
Sep 5
First Quarter
Sep 13
Full
Sep 21
Last Quarter

Hourly Weather History & Observations

Time (CDT) Temp. Heat Index Dew Point Humidity Pressure Visibility Wind Dir Wind Speed Gust Speed Precip Events Conditions
12:53 AM 66.9 °F - 64.9 °F 93% 30.08 in 10.0 mi Calm Calm - N/A   Clear
1:53 AM 64.9 °F - 64.0 °F 97% 30.09 in 10.0 mi Calm Calm - N/A   Clear
2:53 AM 64.0 °F - 63.0 °F 96% 30.10 in 10.0 mi Calm Calm - N/A   Scattered Clouds
3:53 AM 64.0 °F - 63.0 °F 96% 30.10 in 9.0 mi Calm Calm - N/A   Partly Cloudy
4:53 AM 63.0 °F - 62.1 °F 97% 30.11 in 7.0 mi Calm Calm - N/A   Clear
5:53 AM 63.0 °F - 62.1 °F 97% 30.11 in 6.0 mi Calm Calm - N/A   Clear
6:53 AM 62.1 °F - 61.0 °F 96% 30.12 in 10.0 mi Calm Calm - N/A   Clear
7:53 AM 66.0 °F - 62.1 °F 87% 30.13 in 10.0 mi Calm Calm - N/A   Clear
8:53 AM 70.0 °F - 63.0 °F 78% 30.12 in 10.0 mi Calm Calm - N/A   Clear
9:53 AM 75.9 °F - 62.1 °F 62% 30.13 in 10.0 mi Variable 3.5 mph - N/A   Clear
10:53 AM 79.0 °F - 62.1 °F 56% 30.14 in 10.0 mi Calm Calm - N/A   Clear
11:53 AM 82.0 °F 83.0 °F 62.1 °F 51% 30.13 in 10.0 mi Calm Calm - N/A   Clear
12:53 PM 82.9 °F 83.2 °F 60.1 °F 46% 30.12 in 10.0 mi Calm Calm - N/A   Clear
1:53 PM 82.9 °F 83.2 °F 60.1 °F 46% 30.10 in 10.0 mi Calm Calm - N/A   Clear
2:53 PM 84.9 °F 85.4 °F 62.1 °F 46% 30.09 in 10.0 mi Calm Calm - N/A   Clear
3:53 PM 84.0 °F 83.8 °F 59.0 °F 43% 30.07 in 10.0 mi Variable 3.5 mph - N/A   Clear
4:53 PM 84.9 °F 84.8 °F 60.1 °F 43% 30.05 in 10.0 mi SE 4.6 mph - N/A   Clear
5:53 PM 82.9 °F 82.6 °F 57.9 °F 42% 30.04 in 10.0 mi SSE 8.1 mph - N/A   Clear
6:53 PM 82.0 °F 82.0 °F 57.9 °F 44% 30.03 in 10.0 mi SSE 6.9 mph - N/A   Clear
7:53 PM 78.1 °F - 61.0 °F 56% 30.02 in 10.0 mi South 4.6 mph - N/A   Clear
8:53 PM 70.0 °F - 63.0 °F 78% 30.03 in 10.0 mi Calm Calm - N/A   Clear
9:53 PM 69.1 °F - 63.0 °F 81% 30.03 in 10.0 mi SE 3.5 mph - N/A   Clear
10:53 PM 70.0 °F - 61.0 °F 73% 30.03 in 10.0 mi SSE 5.8 mph - N/A   Clear
11:53 PM 69.1 °F - 60.1 °F 73% 30.03 in 10.0 mi SSE 8.1 mph - N/A   Clear